Regional Weather Roundup
Issued by NWS Spokane, WA

Current Version | Previous Version | Text Only | Print | Product List | Glossary On
Versions: 1 2 3 4 5 6 7 8 9 10 11 12 13 14 15 16 17 18 19 20 21 22 23 24 25 26 27 28 29 30 31 32 33 34 35 36 37 38 39 40 41 42 43 44 45 46 47 48 49 50
000
NZUS01 KOTX 310110
RWROTX
EASTERN WASHINGTON/NORTHERN IDAHO ROUNDUP
NATIONAL WEATHER SERVICE, SPOKANE WA
600 PM PDT SUN AUG 30 2015

Note: "fair" indicated few or no clouds below 12,000 feet with no
significant weather and/or obstructions to visibility.

...NORTHEAST WASHINGTON AND NORTHERN IDAHO PANHANDLE...

CITY           SKY/WX    TMP DP  RH WIND       PRES   REMARKS
SPOKANE INTL   MOSUNNY   66  40  38 SW26      29.92S
SPOKANE DOWNTO PTSUNNY   67  45  45 SW16G24   29.91F
COEUR D ALENE  PTSUNNY   61  48  63 S13       29.93R
SANDPOINT      RAIN      55  54  94 W3        29.90S
BONNERS FERRY  FAIR      55  45  67 S6        29.90R

...SOUTHEAST WASHINGTON AND SOUTHERN IDAHO PANHANDLE...

CITY           SKY/WX    TMP DP  RH WIND       PRES   REMARKS
WALLA WALLA    PTSUNNY   72  45  37 W18G24    29.97S
PULLMAN/MOSCOW SUNNY     63  44  50 SW18G28   30.00S
LEWISTON       PTSUNNY   73  42  32 NW9       29.97R
LOWELL           N/A     58  56  93 CALM      30.06R

...COLUMBIA BASIN...

CITY           SKY/WX    TMP DP  RH WIND       PRES   REMARKS
EPHRATA        SUNNY     73  38  27 SW17      29.89S
MOSES LAKE     MOSUNNY   73  40  30 SW15      29.90S
TRI CITIES     SUNNY     76  42  29 SW24G31   29.93R
HERMISTON      MOSUNNY   74  47  38 W18G24    29.96R
PENDLETON      MOSUNNY   71  43  36 W14       29.97F

...EAST SLOPES CASCADES...

CITY           SKY/WX    TMP DP  RH WIND       PRES   REMARKS
THE DALLES     PTSUNNY   67  51  56 NW15G22   29.99F
YAKIMA         PTSUNNY   73  41  31 VRB7G17   29.93R
ELLENSBURG     MOSUNNY   69  42  37 NW17G23   29.92F
WENATCHEE      SUNNY     71  39  31 W17       29.90R
OMAK           SUNNY     73  38  27 S16       29.82R

...SOUTHERN BRITISH COLUMBIA...

CITY           SKY/WX    TMP DP  RH WIND       PRES   REMARKS
PENTICTON      PTSUNNY   68  46  45 SW8       29.81R
CRANBROOK      LGT RAIN  52  43  71 W14G26    29.86R

...WESTERN MONTANA...

CITY           SKY/WX    TMP DP  RH WIND       PRES   REMARKS
MISSOULA       LGT RAIN  53  50  89 CALM      30.02R

...NEIGHBORING CITIES...

CITY           SKY/WX    TMP DP  RH WIND       PRES   REMARKS
SEATTLE        PTSUNNY   67  53  61 SW10      29.98R
CALGARY        PTSUNNY   61  36  39 W32G43    29.63R



USA.gov is the U.S. government's official web portal to all federal, state and local government web resources and services.